Regional Weather Roundup
Issued by NWS

Home | Current Version | Previous Version | Graphics & Text | Print | Product List | Glossary On
Versions: 1 2 3 4 5 6 7 8 9 10 11 12 13 14 15 16 17 18 19 20 21 22 23 24 25 26 27 28 29 30 31 32 33 34 35 36 37 38 39 40 41 42 43 44 45 46 47 48 49 50
000
ASUS43 KLSX 171210
RWRMO

WEATHER SUMMARY FOR MISSOURI
NATIONAL WEATHER SERVICE SPRINGFIELD MO
600 AM CST TUE JAN 17 2017

NOTE: "FAIR" INDICATES FEW OR NO CLOUDS BELOW 12,000 FEET WITH NO
       SIGNIFICANT WEATHER AND/OR OBSTRUCTIONS TO VISIBILITY.
       CURRENT SKY AND/OR WEATHER CONDITIONS ARE NOT AVAILABLE FOR
       CHILLICOTHE AND FARMINGTON.

MOZ001>031-035>038-043-044-053-054-171300-
...NORTHERN AND WESTERN MISSOURI...

CITY           SKY/WX    TMP DP  RH WIND       PRES   REMARKS
KANSAS CTY INT CLOUDY    34  33  96 NW6       30.02R WCI  29
6HR MIN TEMP:  34; 6HR MAX TEMP:  35; 6HR PCP: TRACE;

KANSAS C DTWN  CLOUDY    36  34  92 W7        30.03R
6HR MIN TEMP:  35; 6HR MAX TEMP:  37;

LEE`S SUMMIT   CLOUDY    35  33  92 W10       30.02R WCI  27
6HR MIN TEMP:  35; 6HR MAX TEMP:  38;

ST JOSEPH      CLOUDY    33  33 100 NW10      30.02R WCI  25
6HR MIN TEMP:  33; 6HR MAX TEMP:  34;

CHILLICOTHE      N/A     35  33  92 W5        30.00R
6HR MIN TEMP:  35; 6HR MAX TEMP:  41;

KIRKSVILLE     CLOUDY    35  34  96 W9        29.94R WCI  28
6HR MIN TEMP:  35; 6HR MAX TEMP:  43;


$$
MOZ066>068-077>081-088>096-101>105-171300-
...SOUTHWEST MISSOURI...

CITY           SKY/WX    TMP DP  RH WIND       PRES   REMARKS
SPRINGFIELD    CLOUDY    39  35  86 W12       30.03R
6HR MIN TEMP:  39; 6HR MAX TEMP:  42;

JOPLIN         CLOUDY    37  35  92 W6        30.08R
6HR MIN TEMP:  37; 6HR MAX TEMP:  41;

BRANSON        CLOUDY    39  36  87 W6        30.06R

$$
MOZ032>034-039>042-045>050-055>058-069>072-171300-
...CENTRAL MISSOURI...

CITY           SKY/WX    TMP DP  RH WIND       PRES   REMARKS
COLUMBIA       CLOUDY    40  38  93 W12       29.98R
6HR MIN TEMP:  40; 6HR MAX TEMP:  43;

JEFFERSON CITY CLOUDY    42  37  82 W12       30.00R
6HR MIN TEMP:  42; 6HR MAX TEMP:  44;

ROLLA          CLOUDY    40  38  93 W13       29.98R
6HR MIN TEMP:  40; 6HR MAX TEMP:  45; 6HR PCP: TRACE;

SEDALIA        CLOUDY    38  36  92 W12       30.02R FOG
6HR MIN TEMP:  38; 6HR MAX TEMP:  42;

WHITEMAN AFB   CLOUDY    36  36 100 W9        30.01R WCI  29
WARRENSBURG    CLOUDY    34  34 100 W7        30.02S FOG     WCI  28
OSAGE BEACH    CLOUDY    40  36  86 W10       30.03R

$$
MOZ051-052-059>065-171300-
...EAST CENTRAL MISSOURI...

CITY           SKY/WX    TMP DP  RH WIND       PRES   REMARKS
ST LOUIS INTL  MOCLDY    44  37  76 W12       29.96R
6HR MIN TEMP:  44; 6HR MAX TEMP:  55; 6HR PCP:  0.01;

SPIRIT OF STL  CLOUDY    43  39  86 SW16G23   29.97R
6HR MIN TEMP:  43; 6HR MAX TEMP:  51;

ST CHARLES     CLOUDY    42  39  89 SW10      29.96R
6HR MIN TEMP:  42; 6HR MAX TEMP:  52;


$$
MOZ072>076-082>087-097>100-106>115-171300-
...SOUTH CENTRAL AND SOUTHEAST MISSOURI...

CITY           SKY/WX    TMP DP  RH WIND       PRES   REMARKS
CAPE GIRARDEAU PTCLDY    46  42  86 W9        29.98R
6HR MIN TEMP:  46; 6HR MAX TEMP:  61;

FARMINGTON     CLOUDY    41  37  87 W8G16     29.99R
6HR MIN TEMP:  41; 6HR MAX TEMP:  58;

POPLAR BLUFF   CLEAR     45  38  76 W7        30.02R
6HR MIN TEMP:  44; 6HR MAX TEMP:  60;

WEST PLAINS    CLOUDY    40  37  89 W7        30.02R
6HR MIN TEMP:  38; 6HR MAX TEMP:  46;


$$



USA.gov is the U.S. government's official web portal to all federal, state and local government web resources and services.